Wind_Speed
17 17 17 17 17 17 17 17 18 18 18 18 18 18 19 18 17 17 17 18 18 19 19 20 20 20 21 20 19 20 20 21 22 22 22 22 22 21 21 21 20 21 21
18 18 18 18 18 18 18 18 19 20 20 20 20 20 20 20 19 19 19 19 20 20 21 22 22 23 23 22 21 21 22 23 23 23 22 23 23 23 22 22 21 22 21
20 20 20 20 20 20 20 20 21 21 22 22 22 21 21 21 21 22 22 22 22 23 23 23 24 24 24 24 24 24 24 24 24 24 23 24 24 24 24 23 23 23 22
21 21 21 21 21 21 21 22 23 23 23 23 23 23 23 23 23 24 24 24 25 25 25 26 25 25 26 26 25 25 25 25 25 25 25 25 25 24 24 23 23 23 23
22 23 23 23 23 23 23 24 24 24 24 24 24 24 25 25 25 25 26 26 26 26 26 26 26 26 26 26 26 26 27 26 26 26 25 25 25 25 24 24 23 23 24
23 23 23 23 24 25 25 25 25 26 25 25 25 25 26 26 26 27 27 27 27 27 28 27 27 26 26 26 27 27 28 27 27 27 27 26 25 25 25 24 24 24 25
24 24 25 25 25 26 27 27 27 27 27 27 27 27 27 27 27 28 29 29 29 29 29 28 28 27 27 28 28 28 29 29 29 29 28 27 26 26 26 26 27 27 27
26 26 26 27 27 28 28 29 29 29 29 29 29 29 29 29 29 30 30 30 30 30 30 29 28 29 29 29 30 30 29 29 29 29 28 27 26 27 28 28 29 28 28
27 27 28 28 29 29 30 30 30 30 30 31 31 31 32 32 32 32 32 31 31 31 30 30 30 30 30 30 30 30 30 30 29 29 28 27 28 28 29 29 30 30 29
28 29 29 29 30 30 30 31 31 32 32 32 33 33 33 32 32 33 33 33 32 31 30 30 30 30 30 30 30 30 30 30 28 27 28 28 28 28 29 29 29 29 29
30 30 31 31 30 31 31 32 32 33 33 33 33 33 33 33 33 34 34 33 31 30 30 30 29 30 30 30 30 30 30 30 29 29 29 30 29 29 29 29 29 29 28
30 30 31 31 31 31 31 32 32 33 33 33 34 34 33 34 34 34 33 32 31 31 31 30 30 30 30 31 31 31 31 31 30 29 30 30 29 29 28 28 28 28 28
31 31 31 31 31 31 32 32 32 33 33 33 34 34 34 34 34 33 33 32 32 32 31 31 31 31 31 31 31 31 31 31 30 29 29 29 28 28 29 28 28 28 28
31 31 31 31 31 32 33 33 33 34 34 34 34 35 35 34 34 34 34 33 32 31 31 31 31 30 31 31 31 31 31 31 31 30 29 29 28 28 29 29 29 29 29
33 32 31 31 32 32 33 34 35 35 35 35 35 35 34 33 33 34 33 32 32 31 31 31 31 30 30 30 31 31 31 31 30 30 29 29 29 28 28 28 29 29 29
32 31 31 31 32 33 34 34 34 34 35 35 35 34 34 33 32 32 32 32 32 32 32 31 31 32 32 31 31 31 31 31 30 29 29 29 29 29 28 28 28 28 28
32 31 32 32 33 34 34 34 34 34 34 34 34 34 33 32 31 31 31 32 32 32 32 32 32 33 32 32 33 32 32 31 31 30 29 29 29 29 29 28 28 28 27
32 32 32 32 32 34 34 34 34 34 34 33 32 32 31 31 31 31 31 31 31 32 32 32 33 33 33 32 33 32 32 32 31 31 30 29 29 29 28 28 28 28 27
32 32 32 32 33 33 34 34 34 34 33 32 31 31 31 30 30 30 31 31 31 31 32 32 32 32 32 32 32 32 32 31 31 30 30 30 29 28 28 27 27 27 27
32 31 32 33 32 32 33 33 32 32 32 31 31 31 31 30 30 30 30 30 30 31 31 31 32 31 31 32 31 31 31 31 30 29 29 29 28 28 28 28 27 27 27
31 31 32 32 32 32 32 31 31 31 30 30 30 30 30 30 30 30 30 29 30 30 30 30 30 31 31 30 30 30 31 30 29 29 28 28 28 28 27 27 27 27 27
30 31 31 31 31 31 30 30 30 30 30 30 29 29 29 28 28 29 29 29 29 29 30 30 30 30 30 30 30 29 29 29 28 27 27 27 27 27 27 27 27 27 27
30 30 30 30 31 31 30 30 30 30 30 30 29 29 28 28 28 28 28 28 28 29 29 29 28 28 28 28 29 28 27 27 26 26 26 26 26 27 27 27 27 27 27
30 30 31 30 30 30 30 30 29 29 28 28 28 28 28 28 28 28 28 27 27 27 27 27 27 27 26 26 26 26 26 25 26 25 25 25 26 27 27 26 26 26 26
31 31 30 29 29 29 29 29 28 28 28 28 29 29 28 28 28 29 28 28 27 27 27 27 26 25 25 25 25 25 24 24 24 24 25 26 26 26 27 27 26 26 26
28 28 29 29 28 28 28 28 28 28 28 29 29 29 29 29 29 27 27 27 27 27 27 26 25 24 23 23 23 23 23 23 23 24 25 26 26 26 26 27 27 27 27
Wind_Direction
302 301 302 301 300 300 302 302 303 307 307 305 303 302 303 302 300 300 301 301 300 299 299 300 299 297 294 291 288 287 287 288 289 290 292 293 295 296 295 298 300 303 305
301 301 301 301 300 299 299 299 301 303 302 302 300 300 302 299 298 299 300 301 300 299 298 297 296 295 293 289 287 287 286 287 287 288 288 290 291 291 292 293 297 300 302
299 298 297 297 298 298 298 299 299 300 301 299 296 297 299 298 296 297 297 297 297 297 296 295 294 294 292 291 290 287 286 286 287 287 287 287 288 289 290 290 293 296 299
298 297 296 296 296 296 297 298 298 298 298 297 294 295 296 297 295 295 296 294 294 295 296 294 293 293 292 288 289 289 286 285 286 287 288 288 288 289 289 289 291 293 296
297 297 296 295 296 296 295 295 297 296 295 295 295 294 294 295 295 295 295 293 292 293 294 294 293 292 291 288 286 288 288 286 284 285 286 287 287 287 288 287 289 291 292
296 296 297 297 297 297 296 296 295 295 293 293 294 295 294 293 294 294 294 293 292 292 292 291 290 289 288 287 285 285 285 285 284 284 283 283 284 284 285 286 287 288 289
293 294 296 296 296 296 295 295 294 294 294 293 292 295 295 294 294 294 294 293 291 292 292 290 288 287 286 285 285 285 284 284 284 284 283 283 282 283 284 285 286 286 287
292 293 295 295 295 296 296 294 293 293 293 293 293 294 294 293 293 294 294 293 291 291 292 290 288 287 285 286 286 285 285 284 285 284 282 282 283 283 284 285 286 286 286
292 293 294 294 294 295 295 294 293 292 291 291 292 292 291 292 293 293 293 291 290 290 290 288 287 287 286 285 286 286 287 286 285 283 281 281 282 283 284 285 285 285 286
293 293 293 294 294 294 294 294 292 291 291 291 291 291 291 292 293 293 292 290 291 291 290 288 288 288 286 286 286 287 287 286 285 284 283 281 280 281 283 285 286 287 286
293 293 293 293 293 294 294 293 293 292 292 292 292 292 292 293 292 292 290 291 292 292 290 289 288 287 287 287 288 288 288 286 283 283 282 280 279 280 281 283 285 287 288
293 293 292 293 293 293 294 294 294 293 291 291 292 292 291 292 291 291 291 291 291 291 290 289 288 288 288 288 289 289 287 286 284 283 282 280 279 278 279 281 284 286 287
293 293 293 293 293 294 295 295 294 294 292 292 292 291 292 291 291 291 290 290 290 291 290 288 287 288 288 289 289 289 287 287 284 283 282 280 279 279 280 282 283 285 286
292 292 293 294 293 293 294 295 295 295 293 293 293 293 293 292 290 289 288 288 289 289 289 288 287 288 288 288 288 288 288 288 285 283 280 278 277 278 280 281 282 283 284
292 291 292 294 294 294 295 295 295 295 294 293 293 293 293 292 289 289 288 288 288 287 289 289 289 288 288 288 288 287 286 286 284 282 279 277 276 278 280 281 283 284 285
293 293 294 295 295 295 295 295 294 294 294 294 294 293 293 292 290 289 288 287 288 288 288 289 289 288 289 288 288 286 285 284 283 282 279 277 277 278 280 282 284 284 284
293 293 293 295 295 296 296 296 295 294 295 295 294 294 293 293 292 290 287 287 288 288 287 287 287 288 287 286 286 285 284 282 281 280 278 277 278 278 279 280 282 283 283
292 293 294 294 295 296 297 297 296 296 296 295 295 295 294 293 292 291 288 288 288 288 287 287 287 286 286 286 285 285 283 281 280 278 276 277 278 278 279 279 280 281 281
292 292 294 295 295 296 297 297 297 297 296 296 296 296 295 293 292 292 291 289 288 287 288 287 287 286 286 286 286 284 282 281 280 278 276 275 276 276 278 278 278 279 280
291 292 292 294 295 296 296 297 298 299 298 298 297 297 296 294 293 293 292 291 289 288 289 288 288 288 287 286 285 283 281 280 280 278 276 275 275 275 277 279 279 278 279
291 291 291 292 293 295 297 298 299 300 299 299 297 297 297 296 295 294 293 291 291 290 291 290 290 290 289 287 286 283 281 280 279 277 275 274 273 275 277 279 279 278 280
290 291 293 294 296 297 297 298 298 299 299 298 297 298 298 298 297 297 295 294 293 292 292 292 291 290 288 286 286 284 282 280 277 276 274 273 274 275 276 277 279 280 279
293 295 296 295 296 296 297 298 299 298 298 297 296 298 298 297 296 295 295 295 294 294 295 295 294 292 289 287 287 287 285 282 278 275 274 274 275 275 276 277 280 281 282
294 295 295 295 295 296 296 296 297 298 298 298 298 298 298 297 296 295 294 294 295 295 296 297 296 293 291 290 289 286 285 282 278 275 273 274 276 276 276 276 278 279 279
294 294 295 296 296 296 297 297 297 299 300 300 298 297 296 296 296 295 293 292 292 294 296 296 295 293 293 292 291 287 284 281 279 278 276 275 276 277 276 276 277 279 280
294 295 297 298 298 300 301 302 302 301 301 300 299 298 297 295 295 295 295 294 294 295 296 295 293 292 292 291 290 288 285 283 281 280 280 278 277 277 277 276 278 280 281
Height
5878 5876 5875 5874 5873 5872 5870 5869 5868 5866 5864 5863 5861 5860 5859 5857 5856 5855 5854 5853 5852 5851 5850 5849 5848 5847 5846 5845 5844 5843 5842 5841 5841 5840 5838 5837 5836 5835 5833 5832 5830 5829 5827
5874 5873 5872 5870 5869 5868 5866 5865 5864 5862 5860 5859 5857 5856 5854 5853 5852 5851 5850 5849 5847 5846 5845 5844 5842 5841 5840 5838 5838 5837 5836 5835 5835 5834 5833 5831 5830 5829 5828 5826 5825 5823 5822
5870 5869 5868 5866 5865 5863 5862 5861 5859 5858 5856 5854 5852 5851 5850 5848 5847 5845 5844 5843 5842 5841 5839 5838 5836 5835 5834 5832 5831 5830 5830 5829 5828 5827 5826 5825 5824 5823 5822 5820 5819 5817 5816
5866 5864 5863 5862 5860 5859 5857 5856 5854 5853 5851 5849 5848 5846 5845 5843 5842 5840 5839 5837 5836 5835 5833 5832 5830 5828 5827 5826 5825 5824 5822 5821 5821 5820 5819 5818 5817 5816 5815 5814 5812 5811 5809
5861 5859 5858 5857 5855 5854 5852 5850 5849 5847 5845 5844 5842 5841 5839 5837 5836 5834 5833 5831 5829 5828 5826 5825 5823 5822 5820 5819 5818 5817 5816 5814 5813 5812 5811 5810 5810 5809 5807 5806 5805 5804 5802
5856 5854 5853 5851 5850 5848 5846 5845 5843 5841 5840 5838 5836 5834 5833 5831 5829 5827 5826 5824 5822 5821 5819 5818 5816 5815 5813 5812 5810 5809 5808 5807 5806 5804 5803 5802 5802 5801 5800 5799 5798 5796 5795
5851 5849 5847 5846 5844 5842 5840 5838 5837 5835 5833 5831 5829 5827 5826 5824 5822 5820 5818 5816 5815 5813 5811 5809 5808 5807 5806 5804 5803 5801 5800 5798 5797 5796 5795 5794 5793 5793 5792 5791 5789 5788 5787
5845 5843 5841 5839 5837 5835 5833 5831 5829 5827 5826 5824 5822 5820 5818 5816 5815 5813 5811 5809 5807 5805 5803 5801 5800 5799 5797 5796 5794 5793 5791 5790 5788 5787 5787 5786 5785 5784 5783 5782 5781 5780 5778
5838 5836 5834 5832 5830 5828 5826 5823 5821 5819 5818 5816 5814 5812 5810 5808 5806 5804 5802 5800 5798 5797 5794 5793 5791 5790 5788 5787 5785 5784 5783 5781 5780 5779 5778 5777 5777 5776 5775 5773 5772 5771 5769
5831 5829 5827 5824 5822 5820 5818 5815 5813 5811 5809 5807 5805 5803 5801 5800 5798 5796 5793 5791 5790 5788 5786 5784 5782 5781 5779 5778 5777 5775 5774 5772 5771 5770 5769 5769 5768 5767 5766 5764 5763 5762 5760
5823 5821 5819 5816 5814 5812 5809 5807 5804 5802 5800 5798 5796 5794 5792 5791 5789 5786 5784 5782 5781 5779 5777 5776 5774 5772 5771 5769 5768 5766 5765 5763 5762 5760 5759 5759 5758 5758 5757 5756 5754 5753 5751
5815 5813 5810 5808 5805 5803 5801 5798 5795 5792 5790 5788 5786 5785 5783 5781 5780 5777 5775 5773 5771 5770 5768 5767 5765 5763 5762 5760 5759 5757 5755 5754 5752 5751 5750 5749 5749 5748 5748 5747 5745 5744 5742
5807 5805 5802 5799 5797 5794 5792 5789 5786 5783 5781 5779 5777 5775 5774 5772 5770 5768 5766 5764 5762 5760 5759 5757 5756 5754 5753 5751 5750 5748 5746 5744 5743 5742 5741 5740 5740 5739 5738 5737 5737 5735 5734
5798 5796 5793 5791 5788 5786 5783 5780 5778 5775 5772 5770 5768 5766 5764 5762 5760 5758 5756 5755 5753 5751 5750 5748 5747 5745 5744 5742 5740 5738 5737 5735 5733 5732 5731 5731 5730 5729 5729 5728 5728 5727 5726
5790 5787 5785 5782 5780 5777 5774 5772 5769 5766 5763 5761 5758 5756 5754 5752 5750 5748 5746 5745 5743 5742 5740 5739 5738 5736 5735 5733 5731 5729 5727 5726 5724 5723 5722 5722 5721 5720 5720 5719 5719 5717 5716
5781 5779 5776 5774 5771 5769 5766 5763 5760 5757 5755 5752 5749 5746 5744 5742 5740 5738 5737 5735 5734 5732 5731 5730 5728 5727 5725 5723 5722 5720 5718 5716 5715 5713 5713 5712 5712 5711 5711 5710 5709 5708 5708
5773 5770 5768 5765 5762 5760 5757 5754 5751 5748 5745 5743 5740 5737 5735 5733 5731 5729 5727 5726 5725 5723 5722 5720 5719 5717 5715 5713 5712 5710 5708 5707 5705 5704 5703 5703 5702 5702 5702 5701 5700 5699 5698
5764 5762 5759 5756 5753 5751 5748 5745 5742 5739 5737 5734 5731 5728 5726 5724 5722 5720 5718 5717 5715 5713 5712 5710 5709 5707 5705 5703 5701 5699 5698 5696 5695 5694 5693 5693 5693 5692 5692 5691 5691 5690 5689
5756 5753 5750 5748 5745 5742 5739 5736 5732 5729 5727 5725 5722 5720 5718 5715 5713 5711 5709 5707 5705 5704 5702 5700 5699 5697 5695 5693 5691 5689 5688 5686 5685 5684 5683 5683 5683 5683 5683 5682 5682 5681 5680
5747 5744 5741 5738 5736 5733 5730 5727 5724 5721 5718 5716 5713 5711 5708 5706 5704 5702 5700 5698 5696 5695 5693 5691 5689 5687 5685 5683 5681 5679 5678 5677 5676 5675 5674 5674 5674 5674 5674 5673 5673 5672 5671
5738 5735 5733 5730 5727 5724 5721 5718 5715 5713 5710 5707 5705 5702 5700 5697 5695 5693 5691 5689 5687 5685 5683 5681 5679 5677 5675 5673 5671 5670 5668 5667 5667 5666 5665 5665 5665 5665 5665 5664 5664 5663 5662
5729 5726 5724 5721 5719 5716 5713 5710 5707 5704 5702 5699 5696 5694 5691 5689 5686 5684 5682 5680 5678 5676 5674 5672 5670 5668 5666 5664 5662 5660 5659 5658 5657 5657 5656 5656 5656 5656 5656 5656 5655 5654 5654
5720 5717 5715 5713 5710 5707 5704 5702 5699 5696 5693 5690 5687 5685 5682 5680 5678 5676 5674 5671 5669 5667 5665 5663 5661 5659 5657 5655 5653 5651 5650 5649 5648 5648 5648 5648 5648 5648 5648 5647 5647 5646 5645
5711 5709 5707 5704 5701 5699 5696 5693 5690 5687 5684 5681 5679 5676 5674 5672 5669 5667 5665 5663 5661 5659 5656 5654 5652 5650 5648 5646 5644 5643 5642 5640 5640 5639 5639 5640 5639 5639 5639 5639 5638 5638 5637
5703 5701 5698 5696 5693 5690 5687 5684 5681 5678 5675 5673 5670 5668 5665 5663 5661 5659 5656 5654 5652 5650 5648 5646 5644 5642 5640 5638 5636 5635 5634 5633 5632 5631 5631 5631 5631 5631 5631 5630 5630 5629 5628
5695 5692 5690 5687 5684 5681 5679 5676 5673 5670 5667 5664 5661 5659 5656 5654 5652 5650 5648 5646 5644 5642 5640 5638 5636 5634 5632 5630 5629 5627 5626 5625 5624 5623 5623 5623 5622 5622 5622 5621 5620 5620 5619